Location: �terpigny
(49.8910°N, 2.9249°E)
Time: 06:08:54
(UTC+00:00)

DIWATA 2B (PO-101) - Visible Passes

Search period start: 26 June 2022 00:00
Search period end: 06 July 2022 00:00
Orbit: 585 x 597 km, 98.0° (Epoch: 25 June)

Date Brightness Start Highest point End Pass type
(mag) Time Alt. Az. Time Alt. Az. Time Alt. Az.
26 Jun ? 00:57:16 10° SE 01:01:14 42° ENE 01:05:13 10° N visible
26 Jun ? 02:33:46 11° SW 02:36:55 23° W 02:40:17 10° NW visible
27 Jun ? 01:05:39 11° SE 01:09:33 50° ENE 01:13:38 10° N visible
27 Jun ? 02:42:18 10° SW 02:45:21 19° W 02:48:24 10° NW visible
28 Jun ? 01:14:06 12° SSE 01:17:51 61° ENE 01:22:02 10° N visible
28 Jun ? 02:51:08 10° SW 02:53:46 16° W 02:56:25 10° NW visible
28 Jun ? 23:50:22 10° ENE 23:51:25 11° NE 23:52:29 10° NE visible
29 Jun ? 01:22:33 14° SSE 01:26:10 73° ENE 01:30:24 10° N visible
29 Jun ? 23:57:48 10° E 23:59:39 13° NE 00:01:30 10° NNE visible
30 Jun ? 01:30:59 15° SSE 01:34:31 88° ENE 01:38:46 10° NNW visible
01 Jul ? 00:05:32 10° E 00:07:53 15° ENE 00:10:15 10° NNE visible
01 Jul ? 01:39:27 15° S 01:42:51 77° WSW 01:47:06 10° NNW visible
02 Jul ? 00:13:22 10° E 00:16:07 17° ENE 00:18:53 10° NNE visible
02 Jul ? 01:47:54 16° S 01:51:12 64° WSW 01:55:24 10° NNW visible
03 Jul ? 00:21:18 10° ESE 00:24:22 20° ENE 00:27:27 10° NNE visible
03 Jul ? 01:56:22 16° S 01:59:34 52° W 02:03:42 10° NNW visible
04 Jul ? 00:29:17 10° ESE 00:32:38 23° ENE 00:35:59 10° N visible
04 Jul ? 02:04:48 16° SSW 02:07:55 43° W 02:11:59 10° NNW visible
05 Jul ? 00:37:20 10° ESE 00:40:54 27° ENE 00:44:28 10° N visible
05 Jul ? 02:13:16 15° SSW 02:16:18 36° W 02:20:13 10° NNW visible
